Year,Month,Day,Hour,Minute,Value (Times are PST for windspeed in km/hr)
2010,07,12,00,00,18.60
2010,07,12,00,01,18.70
2010,07,12,00,02,27.20
2010,07,12,00,03,19.90
2010,07,12,00,04,12.40
2010,07,12,00,05,17.70
2010,07,12,00,06,21.80
2010,07,12,00,07,25.10
2010,07,12,00,08,22.70
2010,07,12,00,09,21.20
2010,07,12,00,10,18.20
2010,07,12,00,11,20.00
2010,07,12,00,12,23.10
2010,07,12,00,13,15.40
2010,07,12,00,18,29.80
2010,07,12,00,19,19.80
2010,07,12,00,20,25.60
2010,07,12,00,21,11.40
2010,07,12,00,22,14.40
2010,07,12,00,23,12.00
2010,07,12,00,24,21.30
2010,07,12,00,25,23.00
2010,07,12,00,26,27.10
2010,07,12,00,27,15.90
2010,07,12,00,28,28.70
2010,07,12,00,29,21.20
2010,07,12,00,30,16.40
2010,07,12,00,31,15.80
2010,07,12,00,32,18.70
2010,07,12,00,33,17.50
2010,07,12,00,34,23.20
2010,07,12,00,35,22.10
2010,07,12,00,36,22.40
2010,07,12,00,37,18.70
2010,07,12,00,38,19.40
2010,07,12,00,39,16.90
2010,07,12,00,40,21.10
2010,07,12,00,41,17.60
2010,07,12,00,42,16.30
2010,07,12,00,43,32.90
2010,07,12,00,44,27.00
2010,07,12,00,45,33.80
2010,07,12,00,46,37.50
2010,07,12,00,47,19.70
2010,07,12,00,48,22.30
2010,07,12,00,49,33.20
2010,07,12,00,50,29.40
2010,07,12,00,51,29.50
2010,07,12,00,52,28.00
2010,07,12,00,53,34.80
2010,07,12,00,54,26.10
2010,07,12,00,55,35.20
2010,07,12,00,56,27.70
2010,07,12,00,57,39.10
2010,07,12,00,58,22.10
2010,07,12,00,59,32.40
2010,07,12,01,00,28.30
2010,07,12,01,01,38.70
2010,07,12,01,02,36.30
2010,07,12,01,03,25.50
2010,07,12,01,04,33.00
2010,07,12,01,05,31.90
2010,07,12,01,06,33.30
2010,07,12,01,07,34.60
2010,07,12,01,08,22.00
2010,07,12,01,09,28.90
2010,07,12,01,10,36.30
2010,07,12,01,11,37.00
2010,07,12,01,12,34.70
2010,07,12,01,13,22.50
2010,07,12,01,14,20.40
2010,07,12,01,15,18.40
2010,07,12,01,16,24.00
2010,07,12,01,17,29.80
2010,07,12,01,18,28.20
2010,07,12,01,19,38.20
2010,07,12,01,20,27.70
2010,07,12,01,21,22.50
2010,07,12,01,22,28.50
2010,07,12,01,23,34.30
2010,07,12,01,24,34.70
2010,07,12,01,25,22.50
2010,07,12,01,26,32.10
2010,07,12,01,27,25.30
2010,07,12,01,28,33.00
2010,07,12,01,29,35.50
2010,07,12,01,30,34.30
2010,07,12,01,31,21.40
2010,07,12,01,32,31.20
2010,07,12,01,33,34.10
2010,07,12,01,34,41.20
2010,07,12,01,35,41.50
2010,07,12,01,36,30.40
2010,07,12,01,37,48.70
2010,07,12,01,38,29.40
2010,07,12,01,39,33.30
2010,07,12,01,40,25.60
2010,07,12,01,41,36.30
2010,07,12,01,42,37.30
2010,07,12,01,43,29.30
2010,07,12,01,44,37.70
2010,07,12,01,45,39.10
2010,07,12,01,46,29.80
2010,07,12,01,47,44.70
2010,07,12,01,48,47.20
2010,07,12,01,49,36.50
2010,07,12,01,50,35.10
2010,07,12,01,51,38.70
2010,07,12,01,52,44.80
2010,07,12,01,53,31.20
2010,07,12,01,54,32.10
2010,07,12,01,55,42.60
2010,07,12,01,56,42.30
2010,07,12,01,57,31.20
2010,07,12,01,58,36.10
2010,07,12,01,59,35.70
2010,07,12,02,00,34.20
2010,07,12,02,01,42.30
2010,07,12,02,02,43.90
2010,07,12,02,03,37.90
2010,07,12,02,04,37.40
2010,07,12,02,05,32.80
2010,07,12,02,06,40.90
2010,07,12,02,07,42.90
2010,07,12,02,08,34.50
2010,07,12,02,09,29.10
2010,07,12,02,10,25.50
2010,07,12,02,11,33.60
2010,07,12,02,12,32.30
2010,07,12,02,13,32.80
2010,07,12,02,14,32.30
2010,07,12,02,15,20.00
2010,07,12,02,16,37.20
2010,07,12,02,17,31.50
2010,07,12,02,18,29.70
2010,07,12,02,19,32.80
2010,07,12,02,20,29.60
2010,07,12,02,21,30.70
2010,07,12,02,22,36.80
2010,07,12,02,23,25.60
2010,07,12,02,24,27.40
2010,07,12,02,25,34.20
2010,07,12,02,26,28.50
2010,07,12,02,27,30.40
2010,07,12,02,28,27.90
2010,07,12,02,29,34.10
2010,07,12,02,30,35.80
2010,07,12,02,31,27.30
2010,07,12,02,32,26.80
2010,07,12,02,33,25.00
2010,07,12,02,34,24.20
2010,07,12,02,35,25.00
2010,07,12,02,36,29.20
2010,07,12,02,37,31.10
2010,07,12,02,38,29.90
2010,07,12,02,39,31.10
2010,07,12,02,40,27.80
2010,07,12,02,41,27.60
2010,07,12,02,42,35.20
2010,07,12,02,43,39.00
2010,07,12,02,44,31.90
2010,07,12,02,45,32.40
2010,07,12,02,46,29.80
2010,07,12,02,47,30.40
2010,07,12,02,48,29.50
2010,07,12,02,49,31.30
2010,07,12,02,50,16.30
2010,07,12,02,51,18.80
2010,07,12,02,52,24.20
2010,07,12,02,53,24.40
2010,07,12,02,54,25.90
2010,07,12,02,55,15.70
2010,07,12,02,56,23.30
2010,07,12,02,57,30.90
2010,07,12,02,58,28.30
2010,07,12,02,59,35.00
2010,07,12,03,00,31.10
2010,07,12,03,01,34.50
2010,07,12,03,02,26.20
2010,07,12,03,03,17.60
2010,07,12,03,04,21.30
2010,07,12,03,05,32.40
2010,07,12,03,06,27.60
2010,07,12,03,07,21.90
2010,07,12,03,08,19.80
2010,07,12,03,09,25.70
2010,07,12,03,10,21.50
2010,07,12,03,11,23.90
2010,07,12,03,12,28.70
2010,07,12,03,13,33.90
2010,07,12,03,14,26.40
2010,07,12,03,15,23.50
2010,07,12,03,16,21.70
2010,07,12,03,17,30.50
2010,07,12,03,18,38.40
2010,07,12,03,19,28.40
2010,07,12,03,20,21.60
2010,07,12,03,21,22.50
2010,07,12,03,22,28.50
2010,07,12,03,23,22.90
2010,07,12,03,24,23.00
2010,07,12,03,25,30.10
2010,07,12,03,26,27.80
2010,07,12,03,27,24.70
2010,07,12,03,28,19.50
2010,07,12,03,29,27.20
2010,07,12,03,30,19.40
2010,07,12,03,31,20.30
2010,07,12,03,32,23.00
2010,07,12,03,33,23.10
2010,07,12,03,34,26.20
2010,07,12,03,35,23.90
2010,07,12,03,36,31.90
2010,07,12,03,37,21.00
2010,07,12,03,38,14.00
2010,07,12,03,39,24.00
2010,07,12,03,40,17.50
2010,07,12,03,41,17.90
2010,07,12,03,42,20.70
2010,07,12,03,43,15.90
2010,07,12,03,44,23.00
2010,07,12,03,45,19.90
2010,07,12,03,46,28.20
2010,07,12,03,47,23.20
2010,07,12,03,48,17.70
2010,07,12,03,49,16.40
2010,07,12,03,50,28.10
2010,07,12,03,51,16.30
2010,07,12,03,52,16.20
2010,07,12,03,53,16.90
2010,07,12,03,54,18.30
2010,07,12,03,55,11.10
2010,07,12,03,56,21.90
2010,07,12,03,57,10.40
2010,07,12,03,58,14.50
2010,07,12,03,59,12.10
2010,07,12,04,00,16.70
2010,07,12,04,01,11.60
2010,07,12,04,02,15.90
2010,07,12,04,03,8.70
2010,07,12,04,04,20.00
2010,07,12,04,05,17.60
2010,07,12,04,06,17.70
2010,07,12,04,07,24.00
2010,07,12,04,08,19.10
2010,07,12,04,09,23.80
2010,07,12,04,10,20.60
2010,07,12,04,11,18.70
2010,07,12,04,12,21.40
2010,07,12,04,13,31.70
2010,07,12,04,14,16.00
2010,07,12,04,15,15.10
2010,07,12,04,16,12.20
2010,07,12,04,17,10.20
2010,07,12,04,18,20.00
2010,07,12,04,19,11.60
2010,07,12,04,20,9.90
2010,07,12,04,21,22.80
2010,07,12,04,22,17.70
2010,07,12,04,23,17.90
2010,07,12,04,24,11.70
2010,07,12,04,25,14.50
2010,07,12,04,26,20.50
2010,07,12,04,27,21.80
2010,07,12,04,28,10.50
2010,07,12,04,29,20.40
2010,07,12,04,30,26.50
2010,07,12,04,31,25.90
2010,07,12,04,32,26.50
2010,07,12,04,33,12.80
2010,07,12,04,34,23.80
2010,07,12,04,35,24.20
2010,07,12,04,36,26.60
2010,07,12,04,37,26.00
2010,07,12,04,38,18.80
2010,07,12,04,39,17.10
2010,07,12,04,40,24.10
2010,07,12,04,41,22.80
2010,07,12,04,42,25.90
2010,07,12,04,43,22.70
2010,07,12,04,44,19.30
2010,07,12,04,45,26.30
2010,07,12,04,46,10.90
2010,07,12,04,47,21.80
2010,07,12,04,48,23.20
2010,07,12,04,49,24.90
2010,07,12,04,50,31.80
2010,07,12,04,51,32.30
2010,07,12,04,52,29.40
2010,07,12,04,53,16.20
2010,07,12,04,54,17.80
2010,07,12,04,55,35.10
2010,07,12,04,56,25.50
2010,07,12,04,57,30.90
2010,07,12,04,58,23.60
2010,07,12,04,59,26.20
2010,07,12,05,00,27.00
2010,07,12,05,01,22.70
2010,07,12,05,02,24.40
2010,07,12,05,03,19.90
2010,07,12,05,04,23.70
2010,07,12,05,05,24.10
2010,07,12,05,06,24.10
2010,07,12,05,07,21.60
2010,07,12,05,08,27.80
2010,07,12,05,09,17.90
2010,07,12,05,10,23.40
2010,07,12,05,11,22.60
2010,07,12,05,12,25.00
2010,07,12,05,13,22.60
2010,07,12,05,14,26.90
2010,07,12,05,15,33.60
2010,07,12,05,16,20.70
2010,07,12,05,17,13.20
2010,07,12,05,18,21.90
2010,07,12,05,19,19.30
2010,07,12,05,20,26.40
2010,07,12,05,21,29.50
2010,07,12,05,22,32.90
2010,07,12,05,23,23.10
2010,07,12,05,24,27.20
2010,07,12,05,25,20.70
2010,07,12,05,26,21.50
2010,07,12,05,27,21.20
2010,07,12,05,28,18.30
2010,07,12,05,29,28.50
2010,07,12,05,30,35.70
2010,07,12,05,31,42.00
2010,07,12,05,32,32.90
2010,07,12,05,33,32.70
2010,07,12,05,34,30.10
2010,07,12,05,35,23.30
2010,07,12,05,36,22.60
2010,07,12,05,37,26.20
2010,07,12,05,38,32.70
2010,07,12,05,39,27.60
2010,07,12,05,40,18.40
2010,07,12,05,41,14.70
2010,07,12,05,42,18.50
2010,07,12,05,43,22.70
2010,07,12,05,44,28.10
2010,07,12,05,45,32.60
2010,07,12,05,46,29.50
2010,07,12,05,47,22.40
2010,07,12,05,48,26.10
2010,07,12,05,49,24.30
2010,07,12,05,50,25.70
2010,07,12,05,51,33.50
2010,07,12,05,52,31.20
2010,07,12,05,53,26.20
2010,07,12,05,54,15.40
2010,07,12,05,55,19.80
2010,07,12,05,56,21.00
2010,07,12,05,57,22.10
2010,07,12,05,58,20.00
2010,07,12,05,59,16.90
2010,07,12,06,00,27.10
2010,07,12,06,01,16.80
2010,07,12,06,02,15.90
2010,07,12,06,03,21.50
2010,07,12,06,04,19.10
2010,07,12,06,05,10.70
2010,07,12,06,06,18.20
2010,07,12,06,07,18.30
2010,07,12,06,08,22.60
2010,07,12,06,09,19.30
2010,07,12,06,10,20.90
2010,07,12,06,11,20.00
2010,07,12,06,12,19.00
2010,07,12,06,13,12.80
2010,07,12,06,14,20.70
2010,07,12,06,15,18.30
2010,07,12,06,16,17.30
2010,07,12,06,17,19.20
2010,07,12,06,18,16.70
2010,07,12,06,19,13.00
2010,07,12,06,20,21.40
2010,07,12,06,21,19.80
2010,07,12,06,22,27.60
2010,07,12,06,23,17.90
2010,07,12,06,24,24.50
2010,07,12,06,25,24.20
2010,07,12,06,26,25.50
2010,07,12,06,27,25.40
2010,07,12,06,28,16.20
2010,07,12,06,29,14.80
2010,07,12,06,30,16.50
2010,07,12,06,31,25.40
2010,07,12,06,32,19.10
2010,07,12,06,33,18.50
2010,07,12,06,34,17.30
2010,07,12,06,35,17.90
2010,07,12,06,36,20.80
2010,07,12,06,37,10.50
2010,07,12,06,38,13.40
2010,07,12,06,39,13.40
2010,07,12,06,40,21.10
2010,07,12,06,41,11.90
2010,07,12,06,42,11.80
2010,07,12,06,43,17.20
2010,07,12,06,44,15.90
2010,07,12,06,45,13.90
2010,07,12,06,46,12.60
2010,07,12,06,47,12.70
2010,07,12,06,48,18.00
2010,07,12,06,49,13.30
2010,07,12,06,50,21.00
2010,07,12,06,51,14.10
2010,07,12,06,52,14.10
2010,07,12,06,53,14.70
2010,07,12,06,54,18.70
2010,07,12,06,55,12.50
2010,07,12,06,56,12.30
2010,07,12,06,57,11.40
2010,07,12,06,58,2.70
2010,07,12,06,59,3.00
2010,07,12,07,00,4.90
2010,07,12,07,01,3.70
2010,07,12,07,02,2.40
2010,07,12,07,03,5.70
2010,07,12,07,04,7.30
2010,07,12,07,05,4.30
2010,07,12,07,06,12.40
2010,07,12,07,07,10.70
2010,07,12,07,08,6.80
2010,07,12,07,09,14.70
2010,07,12,07,10,15.60
2010,07,12,07,11,4.60
2010,07,12,07,12,3.30
2010,07,12,07,13,8.90
2010,07,12,07,14,16.20
2010,07,12,07,15,15.40
2010,07,12,07,16,17.70
2010,07,12,07,17,13.90
2010,07,12,07,18,7.30
2010,07,12,07,19,12.70
2010,07,12,07,20,10.40
2010,07,12,07,21,10.30
2010,07,12,07,22,10.40
2010,07,12,07,23,9.80
2010,07,12,07,24,9.50
2010,07,12,07,25,10.90
2010,07,12,07,26,11.00
2010,07,12,07,27,12.50
2010,07,12,07,28,10.50
2010,07,12,07,29,10.90
2010,07,12,07,30,9.80
2010,07,12,07,31,15.10
2010,07,12,07,32,10.80
2010,07,12,07,33,15.80
2010,07,12,07,34,14.90
2010,07,12,07,35,10.50
2010,07,12,07,36,15.50
2010,07,12,07,37,9.70
2010,07,12,07,38,8.40
2010,07,12,07,39,12.60
2010,07,12,07,40,9.30
2010,07,12,07,41,7.20
2010,07,12,07,42,13.80
2010,07,12,07,43,16.10
2010,07,12,07,44,15.40
2010,07,12,07,45,10.90
2010,07,12,07,46,6.40
2010,07,12,07,47,11.40
2010,07,12,07,48,9.70
2010,07,12,07,49,16.50
2010,07,12,07,50,19.70
2010,07,12,07,51,15.10
2010,07,12,07,52,8.10
2010,07,12,07,53,8.10
2010,07,12,07,54,16.80
2010,07,12,07,55,15.40
2010,07,12,07,56,13.40
2010,07,12,07,57,22.50
2010,07,12,07,58,15.80
2010,07,12,07,59,8.80
2010,07,12,08,00,12.10
2010,07,12,08,01,8.50
2010,07,12,08,02,14.20
2010,07,12,08,03,17.60
2010,07,12,08,04,16.70
2010,07,12,08,05,9.70
2010,07,12,08,06,4.90
2010,07,12,08,07,11.00
2010,07,12,08,08,3.90
2010,07,12,08,09,6.40
2010,07,12,08,10,8.20
2010,07,12,08,11,2.50
2010,07,12,08,12,4.70
2010,07,12,08,13,5.80
2010,07,12,08,14,2.70
2010,07,12,08,15,3.70
2010,07,12,08,16,0.30
2010,07,12,08,17,3.70
2010,07,12,08,18,0.20
2010,07,12,08,19,5.10
2010,07,12,08,20,2.60
2010,07,12,08,21,12.00
2010,07,12,08,22,11.70
2010,07,12,08,23,9.00
2010,07,12,08,24,7.90
2010,07,12,08,25,15.80
2010,07,12,08,26,8.10
2010,07,12,08,27,7.50
2010,07,12,08,28,9.50
2010,07,12,08,29,8.50
2010,07,12,08,30,12.60
2010,07,12,08,31,10.90
2010,07,12,08,32,19.70
2010,07,12,08,33,8.60
2010,07,12,08,34,5.10
2010,07,12,08,35,7.80
2010,07,12,08,36,10.10
2010,07,12,08,37,14.80
2010,07,12,08,38,15.70
2010,07,12,08,39,13.20
2010,07,12,08,40,14.20
2010,07,12,08,41,13.20
2010,07,12,08,42,9.80
2010,07,12,08,43,8.60
2010,07,12,08,44,13.80
2010,07,12,08,45,16.30
2010,07,12,08,46,20.40
2010,07,12,08,47,7.50
2010,07,12,08,48,7.50
2010,07,12,08,49,12.00
2010,07,12,08,50,6.80
2010,07,12,08,51,12.50
2010,07,12,08,52,7.60
2010,07,12,08,53,7.40
2010,07,12,08,54,5.30
2010,07,12,08,55,6.40
2010,07,12,08,56,6.30
2010,07,12,08,57,8.60
2010,07,12,08,58,12.80
2010,07,12,08,59,12.70
2010,07,12,09,00,9.40
2010,07,12,09,01,2.70
2010,07,12,09,02,3.10
2010,07,12,09,03,11.60
2010,07,12,09,04,11.80
2010,07,12,09,05,6.40
2010,07,12,09,06,7.50
2010,07,12,09,07,10.70
2010,07,12,09,08,14.20
2010,07,12,09,09,12.10
2010,07,12,09,10,15.70
2010,07,12,09,11,12.60
2010,07,12,09,12,15.10
2010,07,12,09,13,12.70
2010,07,12,09,14,17.00
2010,07,12,09,15,14.10
2010,07,12,09,16,14.20
2010,07,12,09,17,17.10
2010,07,12,09,18,16.60
2010,07,12,09,19,14.30
2010,07,12,09,20,16.10
2010,07,12,09,21,3.50
2010,07,12,09,22,11.40
2010,07,12,09,23,18.90
2010,07,12,09,24,16.20
2010,07,12,09,25,7.90
2010,07,12,09,26,12.00
2010,07,12,09,27,8.90
2010,07,12,09,28,6.90
2010,07,12,09,29,14.00
2010,07,12,09,30,17.60
2010,07,12,09,31,16.10
2010,07,12,09,32,20.20
2010,07,12,09,33,13.00
2010,07,12,09,34,17.10
2010,07,12,09,35,8.80
2010,07,12,09,36,15.00
2010,07,12,09,37,14.60
2010,07,12,09,38,14.40
2010,07,12,09,39,16.40
2010,07,12,09,40,16.40
2010,07,12,09,41,12.70
2010,07,12,09,42,14.50
2010,07,12,09,43,5.80
2010,07,12,09,44,12.10
2010,07,12,09,45,13.20
2010,07,12,09,46,8.80
2010,07,12,09,47,6.10
2010,07,12,09,48,5.90
2010,07,12,09,49,10.80
2010,07,12,09,50,16.30
2010,07,12,09,51,20.80
2010,07,12,09,52,9.30
2010,07,12,09,53,15.00
2010,07,12,09,54,12.70
2010,07,12,09,55,8.70
2010,07,12,09,56,10.00
2010,07,12,09,57,5.10
2010,07,12,09,58,14.10
2010,07,12,09,59,9.80
2010,07,12,10,00,18.10
2010,07,12,10,01,10.20
2010,07,12,10,02,8.40
2010,07,12,10,03,10.40
2010,07,12,10,04,5.80
2010,07,12,10,05,6.80
2010,07,12,10,06,9.40
2010,07,12,10,07,9.00
2010,07,12,10,08,17.70
2010,07,12,10,09,15.30
2010,07,12,10,10,9.70
2010,07,12,10,11,10.40
2010,07,12,10,12,13.00
2010,07,12,10,13,4.50
2010,07,12,10,14,3.80
2010,07,12,10,15,6.00
2010,07,12,10,16,6.40
2010,07,12,10,17,11.30
2010,07,12,10,18,19.70
2010,07,12,10,19,17.10
2010,07,12,10,20,15.00
2010,07,12,10,21,15.80
2010,07,12,10,22,7.00
2010,07,12,10,23,11.90
2010,07,12,10,24,10.80
2010,07,12,10,25,8.80
2010,07,12,10,26,6.90
2010,07,12,10,27,7.00
2010,07,12,10,28,13.00
2010,07,12,10,29,23.30
2010,07,12,10,30,20.20
2010,07,12,10,31,21.50
2010,07,12,10,32,15.60
2010,07,12,10,33,14.20
2010,07,12,10,34,16.40
2010,07,12,10,35,27.40
2010,07,12,10,36,16.60
2010,07,12,10,37,19.10
2010,07,12,10,38,18.40
2010,07,12,10,39,7.00
2010,07,12,10,40,12.20
2010,07,12,10,41,21.80
2010,07,12,10,42,19.50
2010,07,12,10,43,19.90
2010,07,12,10,44,29.80
2010,07,12,10,45,17.40
2010,07,12,10,46,19.20
2010,07,12,10,47,24.40
2010,07,12,10,48,22.50
2010,07,12,10,49,16.00
2010,07,12,10,50,15.40
2010,07,12,10,51,21.30
2010,07,12,10,52,20.40
2010,07,12,10,53,18.10
2010,07,12,10,54,7.70
2010,07,12,10,55,13.20
2010,07,12,10,56,17.10
2010,07,12,10,57,20.80
2010,07,12,10,58,24.80
2010,07,12,10,59,15.60
2010,07,12,11,00,30.10
2010,07,12,11,01,22.40
2010,07,12,11,02,19.50
2010,07,12,11,03,17.10
2010,07,12,11,04,21.70
2010,07,12,11,05,24.10
2010,07,12,11,06,23.60
2010,07,12,11,07,30.70
2010,07,12,11,08,29.70
2010,07,12,11,09,18.10
2010,07,12,11,10,18.20
2010,07,12,11,11,23.50
2010,07,12,11,12,18.60
2010,07,12,11,13,18.70
2010,07,12,11,14,21.80
2010,07,12,11,15,24.50
2010,07,12,11,16,28.70
2010,07,12,11,17,17.20
2010,07,12,11,18,17.00
2010,07,12,11,19,25.10
2010,07,12,11,20,25.70
2010,07,12,11,21,32.30
2010,07,12,11,22,31.30
2010,07,12,11,23,27.80
2010,07,12,11,24,21.90
2010,07,12,11,25,20.40
2010,07,12,11,26,36.70
2010,07,12,11,27,29.50
2010,07,12,11,28,20.90
2010,07,12,11,29,25.70
2010,07,12,11,30,34.20
2010,07,12,11,31,25.70
2010,07,12,11,32,32.00
2010,07,12,11,33,20.80
2010,07,12,11,34,28.70
2010,07,12,11,35,27.90
2010,07,12,11,36,26.50
2010,07,12,11,37,25.80
2010,07,12,11,38,25.40
2010,07,12,11,39,18.70
2010,07,12,11,40,17.70
2010,07,12,11,41,21.40
2010,07,12,11,42,18.30
2010,07,12,11,43,17.20
2010,07,12,11,44,18.90
2010,07,12,11,45,16.90
2010,07,12,11,46,26.90
2010,07,12,11,47,36.60
2010,07,12,11,48,26.10
2010,07,12,11,49,27.90
2010,07,12,11,50,22.40
2010,07,12,11,51,23.60
2010,07,12,11,52,20.80
2010,07,12,11,53,15.50
2010,07,12,11,54,27.00
2010,07,12,11,55,35.20
2010,07,12,11,56,31.70
2010,07,12,11,57,29.50
2010,07,12,11,58,36.50
2010,07,12,11,59,27.80
2010,07,12,12,00,19.60
2010,07,12,12,01,28.60
2010,07,12,12,02,25.70
2010,07,12,12,03,28.60
2010,07,12,12,04,32.70
2010,07,12,12,05,29.20
2010,07,12,12,06,35.80
2010,07,12,12,07,35.20
2010,07,12,12,08,25.00
2010,07,12,12,09,31.60
2010,07,12,12,10,26.30
2010,07,12,12,11,20.00
2010,07,12,12,12,30.10
2010,07,12,12,13,33.70
2010,07,12,12,14,27.80
2010,07,12,12,15,26.30
2010,07,12,12,16,28.40
2010,07,12,12,17,31.10
2010,07,12,12,18,31.60
2010,07,12,12,19,29.80
2010,07,12,12,20,25.20
2010,07,12,12,21,25.30
2010,07,12,12,22,27.90
2010,07,12,12,23,25.00
2010,07,12,12,24,21.00
2010,07,12,12,25,28.90
2010,07,12,12,26,19.80
2010,07,12,12,27,20.60
2010,07,12,12,28,24.40
2010,07,12,12,29,26.60
2010,07,12,12,30,20.30
2010,07,12,12,31,28.40
2010,07,12,12,32,31.80
2010,07,12,12,33,29.00
2010,07,12,12,34,22.80
2010,07,12,12,35,18.40
2010,07,12,12,36,21.80
2010,07,12,12,37,34.00
2010,07,12,12,38,20.60
2010,07,12,12,39,22.40
2010,07,12,12,40,33.70
2010,07,12,12,41,28.30
2010,07,12,12,42,24.20
2010,07,12,12,43,20.80
2010,07,12,12,44,21.10
2010,07,12,12,45,23.30
2010,07,12,12,46,28.50
2010,07,12,12,47,30.70
2010,07,12,12,48,25.30
2010,07,12,12,49,23.70
2010,07,12,12,50,24.70
2010,07,12,12,51,24.80
2010,07,12,12,52,28.50
2010,07,12,12,53,22.90
2010,07,12,12,54,23.50
2010,07,12,12,55,23.10
2010,07,12,12,56,26.40
2010,07,12,12,57,18.60
2010,07,12,12,58,20.80
2010,07,12,12,59,21.90
2010,07,12,13,00,16.30
2010,07,12,13,01,20.00
2010,07,12,13,02,14.60
2010,07,12,13,03,26.80
2010,07,12,13,04,24.90
2010,07,12,13,05,24.40
2010,07,12,13,06,25.30
2010,07,12,13,07,28.10
2010,07,12,13,08,29.50
2010,07,12,13,09,38.10
2010,07,12,13,10,37.40
2010,07,12,13,11,26.00
2010,07,12,13,12,33.20
2010,07,12,13,13,41.30
2010,07,12,13,14,34.10
2010,07,12,13,15,28.90
2010,07,12,13,16,23.60
2010,07,12,13,17,36.90
2010,07,12,13,18,31.10
2010,07,12,13,19,32.10
2010,07,12,13,20,29.90
2010,07,12,13,21,29.20
2010,07,12,13,22,34.80
2010,07,12,13,23,32.70
2010,07,12,13,24,35.20
2010,07,12,13,25,23.60
2010,07,12,13,26,28.90
2010,07,12,13,27,30.10
2010,07,12,13,28,24.50
2010,07,12,13,29,27.90
2010,07,12,13,30,22.40
2010,07,12,13,31,28.50
2010,07,12,13,32,25.80
2010,07,12,13,33,29.80
2010,07,12,13,34,37.20
2010,07,12,13,35,22.20
2010,07,12,13,36,27.80
2010,07,12,13,37,28.40
2010,07,12,13,38,38.20
2010,07,12,13,39,26.40
2010,07,12,13,40,31.80
2010,07,12,13,41,27.70
2010,07,12,13,42,16.40
2010,07,12,13,43,31.90
2010,07,12,13,44,25.90
2010,07,12,13,45,29.60
2010,07,12,13,46,32.80
2010,07,12,13,47,26.60
2010,07,12,13,48,33.30
2010,07,12,13,49,32.30
2010,07,12,13,50,26.20
2010,07,12,13,51,40.70
2010,07,12,13,52,38.80
2010,07,12,13,53,33.80
2010,07,12,13,54,34.60
2010,07,12,13,55,41.00
2010,07,12,13,56,28.20
2010,07,12,13,57,25.20
2010,07,12,13,58,22.80
2010,07,12,13,59,39.50
2010,07,12,14,00,31.70
2010,07,12,14,01,33.40
2010,07,12,14,02,38.70
2010,07,12,14,03,31.00
2010,07,12,14,04,33.60
2010,07,12,14,05,39.70
2010,07,12,14,06,38.90
2010,07,12,14,07,36.40
2010,07,12,14,08,23.40
2010,07,12,14,09,28.30
2010,07,12,14,10,18.30
2010,07,12,14,11,24.60
2010,07,12,14,12,35.10
2010,07,12,14,13,27.00
2010,07,12,14,14,33.30
2010,07,12,14,15,41.70
2010,07,12,14,16,33.20
2010,07,12,14,17,32.50
2010,07,12,14,18,38.10
2010,07,12,14,19,34.20
2010,07,12,14,20,32.20
2010,07,12,14,21,33.00
2010,07,12,14,22,20.40
2010,07,12,14,23,31.70
2010,07,12,14,24,25.20
2010,07,12,14,25,31.20
2010,07,12,14,26,25.40
2010,07,12,14,27,38.10
2010,07,12,14,28,25.70
2010,07,12,14,29,30.10
2010,07,12,14,30,33.30
2010,07,12,14,31,26.40
2010,07,12,14,32,27.00
2010,07,12,14,33,36.60
2010,07,12,14,34,32.00
2010,07,12,14,35,28.90
2010,07,12,14,36,27.40
2010,07,12,14,37,21.70
2010,07,12,14,38,22.50
2010,07,12,14,39,31.10
2010,07,12,14,40,30.40
2010,07,12,14,41,25.30
2010,07,12,14,42,25.90
2010,07,12,14,43,34.20
2010,07,12,14,44,31.40
2010,07,12,14,45,29.40
2010,07,12,14,46,37.90
2010,07,12,14,47,18.10
2010,07,12,14,48,25.70
2010,07,12,14,49,24.70
2010,07,12,14,50,25.20
2010,07,12,14,51,22.20
2010,07,12,14,52,26.90
2010,07,12,14,53,28.70
2010,07,12,14,54,22.80
2010,07,12,14,55,28.90
2010,07,12,14,56,22.40
2010,07,12,14,57,27.00
2010,07,12,14,58,22.00
2010,07,12,14,59,25.80
2010,07,12,15,00,20.90
2010,07,12,15,01,27.20
2010,07,12,15,02,29.10
2010,07,12,15,03,24.10
2010,07,12,15,04,22.00
2010,07,12,15,05,22.90
2010,07,12,15,06,28.20
2010,07,12,15,07,28.00
2010,07,12,15,08,26.40
2010,07,12,15,09,24.70
2010,07,12,15,10,23.00
2010,07,12,15,11,17.80
2010,07,12,15,12,29.60
2010,07,12,15,13,26.90
2010,07,12,15,14,35.80
2010,07,12,15,15,24.90
2010,07,12,15,16,38.70
2010,07,12,15,17,36.20
2010,07,12,15,18,33.60
2010,07,12,15,19,29.80
2010,07,12,15,20,30.60
2010,07,12,15,21,24.60
2010,07,12,15,22,19.50
2010,07,12,15,23,29.10
2010,07,12,15,24,37.80
2010,07,12,15,25,34.20
2010,07,12,15,26,21.40
2010,07,12,15,27,27.00
2010,07,12,15,28,26.30
2010,07,12,15,29,29.30
2010,07,12,15,30,21.40
2010,07,12,15,31,33.10
2010,07,12,15,32,31.80
2010,07,12,15,33,24.10
2010,07,12,15,34,21.40
2010,07,12,15,35,13.30
2010,07,12,15,36,25.40
2010,07,12,15,37,35.50
2010,07,12,15,38,23.30
2010,07,12,15,39,26.30
2010,07,12,15,40,28.50
2010,07,12,15,41,27.80
2010,07,12,15,42,23.00
2010,07,12,15,43,19.10
2010,07,12,15,44,25.50
2010,07,12,15,45,35.60
2010,07,12,15,46,20.20
2010,07,12,15,47,24.80
2010,07,12,15,48,40.50
2010,07,12,15,49,36.80
2010,07,12,15,50,24.90
2010,07,12,15,51,21.50
2010,07,12,15,52,20.50
2010,07,12,15,53,23.70
2010,07,12,15,54,19.30
2010,07,12,15,55,23.00
2010,07,12,15,56,37.70
2010,07,12,15,57,26.90
2010,07,12,15,58,24.40
2010,07,12,15,59,23.60
2010,07,12,16,00,15.80
2010,07,12,16,01,21.80
2010,07,12,16,02,38.50
2010,07,12,16,03,23.20
2010,07,12,16,04,34.40
2010,07,12,16,05,35.50
2010,07,12,16,06,31.00
2010,07,12,16,07,19.80
2010,07,12,16,08,32.40
2010,07,12,16,09,21.80
2010,07,12,16,10,23.60
2010,07,12,16,11,22.40
2010,07,12,16,12,27.00
2010,07,12,16,13,23.50
2010,07,12,16,14,31.30
2010,07,12,16,15,27.60
2010,07,12,16,16,26.60
2010,07,12,16,17,19.20
2010,07,12,16,18,30.00
2010,07,12,16,19,27.50
2010,07,12,16,20,25.60
2010,07,12,16,21,36.50
2010,07,12,16,22,14.90
2010,07,12,16,23,30.50
2010,07,12,16,24,29.00
2010,07,12,16,25,40.90
2010,07,12,16,26,23.40
2010,07,12,16,27,17.20
2010,07,12,16,28,32.70
2010,07,12,16,29,27.50
2010,07,12,16,30,40.60
2010,07,12,16,31,27.80
2010,07,12,16,32,31.40
2010,07,12,16,33,36.40
2010,07,12,16,34,26.60
2010,07,12,16,35,24.90
2010,07,12,16,36,29.30
2010,07,12,16,37,18.60
2010,07,12,16,38,28.10
2010,07,12,16,39,40.50
2010,07,12,16,40,25.90
2010,07,12,16,41,25.10
2010,07,12,16,42,21.10
2010,07,12,16,43,26.80
2010,07,12,16,44,24.90
2010,07,12,16,45,19.80
2010,07,12,16,46,27.70
2010,07,12,16,47,26.40
2010,07,12,16,48,30.10
2010,07,12,16,49,34.30
2010,07,12,16,50,31.10
2010,07,12,16,51,16.90
2010,07,12,16,52,21.50
2010,07,12,16,53,23.00
2010,07,12,16,54,27.30
2010,07,12,16,55,25.90
2010,07,12,16,56,18.80
2010,07,12,16,57,20.70
2010,07,12,16,58,26.50
2010,07,12,16,59,17.90
2010,07,12,17,00,20.70
2010,07,12,17,01,26.60
2010,07,12,17,02,17.60
2010,07,12,17,03,31.90
2010,07,12,17,04,34.10
2010,07,12,17,05,27.80
2010,07,12,17,06,33.40
2010,07,12,17,07,32.70
2010,07,12,17,08,31.00
2010,07,12,17,09,25.80
2010,07,12,17,10,32.70
2010,07,12,17,11,22.50
2010,07,12,17,12,33.10
2010,07,12,17,13,33.70
2010,07,12,17,14,41.40
2010,07,12,17,15,35.00
2010,07,12,17,16,38.30
2010,07,12,17,17,36.50
2010,07,12,17,18,20.80
2010,07,12,17,19,31.00
2010,07,12,17,20,26.30
2010,07,12,17,21,30.00
2010,07,12,17,22,36.30
2010,07,12,17,23,34.20
2010,07,12,17,24,27.80
2010,07,12,17,25,21.40
2010,07,12,17,26,24.80
2010,07,12,17,27,24.90